This is the latest recevied weather packets stored in our database for station/object KD8PH. If no packets are shown the sender has not sent any weather packets the latest 10 day(s).
| Time | Temp. | Humidity | Pressure | Rain* | Wind** | Luminosity | Snow |
|---|---|---|---|---|---|---|---|
| 1777940153 | 23.89° C | 45% | 1010.7 hPa | 0 mm | - | - | - |
| 1777939539 | 23.89° C | 44% | 1010.6 hPa | 0 mm | - | - | - |
| 1777938939 | 23.89° C | 45% | 1010.6 hPa | 0 mm | - | - | - |
| 1777938344 | 24.44° C | 45% | 1010.6 hPa | 0 mm | - | - | - |
| 1777937737 | 24.44° C | 45% | 1010.7 hPa | 0 mm | - | - | - |
| 1777937138 | 24.44° C | 48% | 1010.8 hPa | 0 mm | - | - | - |
| 1777936541 | 24.44° C | 46% | 1010.8 hPa | 0 mm | - | - | - |
| 1777935937 | 24.44° C | 46% | 1010.8 hPa | 0 mm | - | - | - |
| 1777935338 | 24.44° C | 46% | 1010.9 hPa | 0 mm | - | - | - |
| 1777934739 | 24.44° C | 45% | 1011 hPa | 0 mm | - | - | - |
| 1777934157 | 25° C | 46% | 1011.1 hPa | 0 mm | - | - | - |
| 1777933546 | 25° C | 44% | 1011.1 hPa | 0 mm | - | - | - |
| 1777932961 | 25° C | 45% | 1011.3 hPa | 0 mm | - | - | - |
| 1777932339 | 25° C | 43% | 1011.3 hPa | 0 mm | - | - | - |
| 1777931735 | 25° C | 44% | 1011.4 hPa | 0 mm | - | - | - |
| 1777931150 | 25° C | 43% | 1011.4 hPa | 0 mm | - | - | - |
| 1777930538 | 25° C | 46% | 1011.3 hPa | 0 mm | - | - | - |
| 1777929943 | 25° C | 45% | 1011.3 hPa | 0 mm | - | - | - |
| 1777929341 | 25° C | 45% | 1011.3 hPa | 0 mm | - | - | - |
| 1777928736 | 25° C | 43% | 1011.4 hPa | 0 mm | - | - | - |
| 1777928138 | 24.44° C | 45% | 1011.6 hPa | 0 mm | - | - | - |
| 1777927536 | 24.44° C | 45% | 1011.6 hPa | 0 mm | - | - | - |
| 1777926951 | 24.44° C | 45% | 1011.7 hPa | 0 mm | - | - | - |
| 1777926339 | 23.89° C | 49% | 1011.9 hPa | 0 mm | - | - | - |
| 1777925745 | 24.44° C | 43% | 1011.9 hPa | 0 mm | - | - | - |
* Rain latest hour (hover to see other rain measurements)
** Current wind speed in m/s (hover to see current wind gust speed)